Вернуться в каталог

CZ-4 DEB

АктивенSSO
NORAD 20793·DEBRIS·🇨🇳 China

Запущен Sep 3, 1990 с Taiyuan Satellite Launch Center

Loading…

Ближайшие Пролёты (ближайшие 24 часа)

TLE

СвежийSource: Space-Track

Эпоха: Sep 13, 2026, 22:44 UTC

1 20793U 90081F   26256.94788760  .00000525  00000-0  26171-3 0  9991
2 20793  98.7825 244.3614 0020685  80.8855 279.4661 14.21079442856098

Отслеживайте CZ-4 DEB в реальном времени с AllMySat

Download on the App Store